Flag for USA

Past Weather in Kansas City, Missouri, USA — May 2016

Currently: 58 °F. Sunny. (Weather station: Kansas City Downtown Airport, USA). See more current weather

May 2016 Weather in Kansas City — Graph

°F

High & Low Weather Summary for May 2016

 TemperatureHumidityPressure
High87 °F (May 29, 3:54 pm)100% (May 26, 11:54 pm)30.32 "Hg (May 26, 11:54 pm)
Low43 °F (May 3, 6:54 am)24% (May 5, 4:54 pm)29.57 "Hg (May 9, 6:54 pm)
Average65 °F67%29.97 "Hg
* Reported May 1 12:54 am — May 31 11:54 pm, Kansas City. Weather by CustomWeather, © 2021

Note: Actual official high and low records may vary slightly from our data, if they occured in-between our weather recording intervals... More about our weather records

Kansas City Weather History for May 1, 2016

Scroll right to see more
 ConditionsComfort  
Time TempWeatherWind HumidityBarometerVisibility
12:54 am
Sun, May 1
58 °FPassing clouds.5 mph67%29.86 "Hg10 mi
1:54 am56 °FPartly cloudy.7 mph70%29.87 "Hg10 mi
2:54 am55 °FPartly cloudy.5 mph74%29.87 "Hg10 mi
3:54 am54 °FPassing clouds.6 mph77%29.88 "Hg10 mi
4:54 am54 °FMostly cloudy.6 mph77%29.88 "Hg10 mi
5:54 am53 °FOvercast.6 mph80%29.89 "Hg10 mi
6:54 am53 °FPassing clouds.6 mph80%29.90 "Hg10 mi
7:54 am53 °FScattered clouds.5 mph80%29.93 "Hg10 mi
8:54 am56 °FSunny.9 mph70%29.96 "Hg10 mi
9:54 am59 °FScattered clouds.12 mph62%29.96 "Hg10 mi
10:54 am60 °FMore clouds than sun.10 mph58%29.97 "Hg10 mi
11:54 am59 °FOvercast.6 mph60%29.98 "Hg10 mi
12:54 pm60 °FOvercast.9 mph60%29.98 "Hg10 mi
1:54 pm61 °FOvercast.9 mph58%29.99 "Hg10 mi
2:54 pm59 °FCloudy.9 mph64%30.01 "Hg10 mi
3:54 pm58 °FMostly cloudy.13 mph67%30.03 "Hg10 mi
4:54 pm57 °FMore clouds than sun.10 mph72%30.03 "Hg10 mi
5:54 pm58 °FCloudy.10 mph65%30.04 "Hg10 mi
6:54 pm56 °FOvercast.14 mph70%30.05 "Hg10 mi
7:54 pm54 °FOvercast.9 mph69%30.08 "Hg10 mi
8:54 pm53 °FMore clouds than sun.12 mph72%30.09 "Hg10 mi
9:54 pm52 °FOvercast.6 mph75%30.11 "Hg10 mi
10:54 pm52 °FMostly cloudy.5 mph77%30.13 "Hg10 mi
11:54 pm51 °FOvercast.5 mph77%30.14 "Hg10 mi
Weather by CustomWeather, © 2021

See weather overview